FW5908 Weather Reports


time (UTC)temp
F
wind
direction
speed
knots
gust
knots
rain 1hr
in
rain 24hr
in
rain mn
in
humidity
%
barometer
mb
20260505100608 47 140 0.0 0.0 0.00 0.00 0.00 78 1012.3
20260505095607 47 140 0.0 0.0 0.00 0.00 0.00 76 1012.2
20260505094607 47 140 0.0 0.0 0.00 0.00 0.00 76 1012.3
20260505093608 47 140 0.0 0.0 0.00 0.00 0.00 77 1012.0
20260505092607 47 140 0.0 0.0 0.00 0.00 0.00 76 1011.7
20260505091608 48 140 0.0 0.0 0.00 0.00 0.00 76 1011.4
20260505090607 48 140 0.0 0.0 0.00 0.00 0.00 75 1011.1
20260505085607 48 140 0.0 0.9 0.00 0.00 0.00 72 1011.2
20260505084607 48 140 0.0 0.0 0.00 0.00 0.00 73 1011.1
20260505083607 48 140 0.0 0.0 0.00 0.00 0.00 73 1011.1
20260505082607 49 140 0.0 0.0 0.00 0.00 0.00 71 1010.8
20260505081607 49 140 0.0 0.0 0.00 0.00 0.00 69 1010.4
20260505080607 49 140 0.0 0.0 0.00 0.00 0.00 68 1010.1
20260505075607 49 140 0.0 0.0 0.00 0.00 0.00 68 1010.2
20260505074607 49 140 0.0 0.0 0.00 0.00 0.00 67 1010.3
20260505073607 49 140 0.0 0.0 0.00 0.00 0.00 67 1010.1
20260505072607 49 140 0.0 1.7 0.00 0.00 0.00 66 1010.1
20260505071607 50 140 0.0 0.0 0.00 0.00 0.00 66 1010.1
20260505070607 50 140 0.0 0.9 0.00 0.00 0.00 64 1010.1
20260505065607 50 140 0.0 1.7 0.00 0.00 0.00 64 1009.9
20260505064607 50 140 0.0 2.6 0.00 0.00 0.00 63 1009.9
20260505063607 50 182 0.0 1.7 0.00 0.00 0.00 62 1010.4
20260505062607 50 183 0.0 1.7 0.00 0.00 0.00 62 1010.5
20260505061607 50 151 1.7 2.6 0.00 0.00 0.00 61 1010.0
20260505060607 50 250 0.9 2.6 0.00 0.00 0.00 61 1010.3
20260505055607 50 348 0.0 2.6 0.00 0.00 0.00 61 1010.4
20260505054607 50 355 0.9 3.5 0.00 0.00 0.00 61 1010.0
20260505053607 51 164 0.9 4.3 0.00 0.00 0.00 61 1009.8
20260505052607 51 9 0.9 2.6 0.00 0.00 0.00 62 1010.1
20260505051607 51 101 0.9 2.6 0.00 0.00 0.00 60 1010.3
20260505050607 52 26 0.0 3.5 0.00 0.00 0.00 60 1009.8
20260505041607 55 142 0.9 4.3 0.00 0.00 0.00 46 1009.9
20260505040607 55 329 1.7 5.2 0.00 0.00 0.00 46 1009.5
20260505035607 56 317 0.9 2.6 0.00 0.00 0.00 47 1009.7
20260505034607 56 38 0.9 2.6 0.00 0.00 0.00 47 1009.5
20260505033607 56 90 0.9 8.7 0.00 0.00 0.00 46 1009.1
20260505032607 56 328 0.9 5.2 0.00 0.00 0.00 46 1009.4
20260505031607 56 360 1.7 5.2 0.00 0.00 0.00 45 1009.1
20260505030606 56 303 0.9 9.6 0.00 0.00 0.00 46 1009.0
20260505025607 57 73 1.7 4.3 0.00 0.00 0.00 46 1009.0
20260505024606 57 132 2.6 7.0 0.00 0.00 0.00 45 1008.0
20260505023606 58 69 0.9 7.8 0.00 0.00 0.00 45 1007.7
20260505022607 58 318 4.3 7.0 0.00 0.00 0.00 44 1007.6
20260505021606 59 331 4.3 7.0 0.00 0.00 0.00 44 1007.9
20260505020606 60 309 1.7 8.7 0.00 0.00 0.00 43 1007.7
20260505015606 61 24 0.9 7.8 0.00 0.00 0.00 42 1007.5
20260505014606 62 63 3.5 8.7 0.00 0.00 0.00 41 1006.9
20260505013606 62 349 1.7 7.0 0.00 0.00 0.00 39 1006.9
20260505012606 63 265 3.5 7.8 0.00 0.00 0.00 38 1006.8
20260505011606 64 97 2.6 7.8 0.00 0.00 0.00 37 1006.5
20260505010606 65 15 1.7 5.2 0.00 0.00 0.00 37 1006.2
20260505005607 67 50 0.0 8.7 0.00 0.00 0.00 37 1006.2
20260505004606 68 67 0.0 3.5 0.00 0.00 0.00 38 1005.7
20260505003606 68 50 0.0 3.5 0.00 0.00 0.00 37 1005.5
20260505002606 69 13 0.9 3.5 0.00 0.00 0.00 36 1005.5
20260505001606 70 82 1.7 5.2 0.00 0.00 0.00 35 1005.5
20260505000606 71 34 0.0 7.0 0.00 0.00 0.00 34 1005.5
20260504235606 72 74 0.9 7.8 0.00 0.00 0.00 33 1005.3
20260504234606 72 327 1.7 3.5 0.00 0.00 0.00 33 1005.2
20260504233606 73 317 0.9 7.0 0.00 0.00 0.00 32 1005.0
20260504232606 74 139 0.9 5.2 0.00 0.00 0.00 31 1005.0
20260504231606 75 119 2.6 9.6 0.00 0.00 0.00 33 1004.8
20260504230606 75 23 0.9 7.0 0.00 0.00 0.00 32 1004.5
20260504225606 76 24 0.9 4.3 0.00 0.00 0.00 31 1004.2
20260504224606 77 44 0.9 5.2 0.00 0.00 0.00 31 1004.1
20260504223606 77 99 0.9 3.5 0.00 0.00 0.00 34 1003.7
20260504222606 77 19 0.9 5.2 0.00 0.00 0.00 32 1003.8
20260504221606 78 360 0.0 7.0 0.00 0.00 0.00 32 1003.6
20260504220606 78 360 2.6 2.6 0.00 0.00 0.00 34 1003.4
20260504215606 79 51 1.7 5.2 0.00 0.00 0.00 33 1003.3
20260504214606 79 275 0.0 5.2 0.00 0.00 0.00 32 1003.3
20260504213606 80 153 0.9 3.5 0.00 0.00 0.00 33 1003.2
20260504212606 80 360 2.6 5.2 0.00 0.00 0.00 33 1003.1
20260504211605 81 134 2.6 3.5 0.00 0.00 0.00 35 1002.9
20260504210606 81 334 0.0 4.3 0.00 0.00 0.00 34 1002.9
20260504205606 82 325 0.0 3.5 0.00 0.00 0.00 36 1002.7
20260504204606 83 360 0.9 7.8 0.00 0.00 0.00 35 1002.7
20260504203605 83 319 0.9 4.3 0.00 0.00 0.00 34 1002.6
20260504202605 84 344 0.9 3.5 0.00 0.00 0.00 33 1002.7
20260504201605 84 40 0.9 6.1 0.00 0.00 0.00 33 1002.7
20260504200605 84 292 0.9 9.6 0.00 0.00 0.00 30 1002.6
20260504195606 85 44 1.7 5.2 0.00 0.00 0.00 32 1002.6
20260504194606 84 16 0.9 3.5 0.00 0.00 0.00 32 1002.5
20260504193605 84 262 2.6 5.2 0.00 0.00 0.00 29 1002.6
20260504192605 84 103 0.9 6.1 0.00 0.00 0.00 33 1002.5
20260504191605 84 292 4.3 7.0 0.00 0.00 0.00 30 1002.3
20260504190605 84 299 2.6 7.0 0.00 0.00 0.00 29 1002.5
20260504185605 83 275 2.6 6.1 0.00 0.00 0.00 29 1002.4
20260504184605 83 291 3.5 7.0 0.00 0.00 0.00 32 1002.4
20260504183605 82 22 3.5 7.8 0.00 0.00 0.00 31 1002.5
20260504182605 81 327 2.6 8.7 0.00 0.00 0.00 35 1002.7
20260504181605 81 261 1.7 3.5 0.00 0.00 0.00 32 1002.7
20260504180605 80 211 2.6 7.0 0.00 0.00 0.00 36 1002.9
20260504175605 81 304 1.7 8.7 0.00 0.00 0.00 34 1003.0
20260504174605 80 284 0.0 2.6 0.00 0.00 0.00 39 1003.2
20260504173605 79 286 0.0 9.6 0.00 0.00 0.00 36 1003.2
20260504172605 79 280 3.5 7.0 0.00 0.00 0.00 35 1003.3
20260504171605 79 277 0.9 3.5 0.00 0.00 0.00 39 1003.3
20260504170605 77 16 0.9 6.1 0.00 0.00 0.00 41 1003.3
20260504150605 66 20 1.7 2.6 0.00 0.00 0.00 52 1003.5
20260504140605 61 313 0.0 3.5 0.00 0.00 0.00 59 1003.9
20260504130604 54 251 0.0 0.0 0.00 0.00 0.00 69 1003.5
20260504110604 54 223 0.0 0.0 0.00 0.00 0.00 59 1003.4